SV2BZQ-2 Thessalonik GR current weather conditions

sailwx.info

Wind from 145

Air temperature 20.6° C
Dewpoint 14.7° C

Last reported at 2015-Apr-26 10:42 UTC.
Time now 2015-Apr-26 11:32 UTC

Location: N 40°41' E 022°51'.
View on Google Maps.

See reports from other nearby stations

  
Tides and Currents Weather Stations Pressure Air Temp Water Temp Dewpoint Dewpoint Depression Visibility Wind Speed Wind Dir Waves Ship Positions
date/time (UTC)wind fromknots sea level pressurealtimeterstation pressurevisibilityair tempwater tempwave heightnotes
2015-Apr-26 10:42 145 20.6
2015-Apr-26 10:27 133 20.6
2015-Apr-26 10:12 145 2 gusting 6 20.6
2015-Apr-26 09:57 180 1 gusting 7 20.6
2015-Apr-26 09:42 166 20.6
2015-Apr-26 09:27 122 0 gusting 3 20.0
2015-Apr-26 09:12 124 20.0
2015-Apr-26 08:55 215 1 gusting 6 18.9
2015-Apr-26 08:40 194 18.3
2015-Apr-26 08:25 194 17.8
2015-Apr-26 08:10 207 17.2
2015-Apr-26 07:55 197 16.1
2015-Apr-26 07:40 188 15.6
2015-Apr-26 07:25 275 14.4
2015-Apr-26 07:08 304 13.9
2015-Apr-26 06:55 305 13.9
2015-Apr-26 06:38 305 13.3
2015-Apr-26 06:23 304 12.8
2015-Apr-26 06:08 304 12.8
2015-Apr-26 05:53 303 12.8
2015-Apr-26 05:37 304 12.2
2015-Apr-26 05:22 304 11.7
2015-Apr-26 05:07 305 11.7
2015-Apr-26 04:52 305 11.7
2015-Apr-26 04:37 305 11.7
2015-Apr-26 04:22 311 11.1
2015-Apr-26 04:07 271 11.1
2015-Apr-26 03:52 265 10.6
2015-Apr-26 03:37 265 10.6
2015-Apr-26 03:22 265 10.6
2015-Apr-26 03:05 265 10.6
2015-Apr-26 02:50 265 10.6
2015-Apr-26 02:35 264 10.6
2015-Apr-26 02:20 264 10.6
2015-Apr-26 02:07 264 10.6
2015-Apr-26 01:50 263 10.6
2015-Apr-26 01:35 236 10.6
2015-Apr-26 01:18 236 11.1
2015-Apr-26 01:05 236 11.1
2015-Apr-26 00:48 236 11.1
2015-Apr-26 00:33 236 11.7
2015-Apr-26 00:18 236 11.7
2015-Apr-26 00:02 236 12.2
2015-Apr-25 23:47 236 12.2
2015-Apr-25 23:32 236 12.2
2015-Apr-25 23:17 236 0 gusting 2 12.8
2015-Apr-25 23:02 208 12.8
2015-Apr-25 22:47 208 13.3
2015-Apr-25 22:32 174 13.3
2015-Apr-25 22:17 170 13.3
2015-Apr-25 22:02 168 13.9
2015-Apr-25 21:45 148 13.9
2015-Apr-25 21:30 148 14.4
2015-Apr-25 21:15 148 14.4
2015-Apr-25 21:00 148 14.4
2015-Apr-25 20:45 148 14.4
2015-Apr-25 20:30 148 14.4
2015-Apr-25 20:15 148 15.0
2015-Apr-25 20:00 152 0 gusting 6 15.0
2015-Apr-25 19:43 137 0 gusting 4 15.0
2015-Apr-25 19:28 179 15.6
2015-Apr-25 19:13 164 15.6
2015-Apr-25 19:00 162 15.6
2015-Apr-25 18:43 164 15.6
2015-Apr-25 18:28 171 16.1
2015-Apr-25 18:12 171 16.1
2015-Apr-25 17:58 169 1 gusting 5 16.1
2015-Apr-25 17:42 169 16.7
2015-Apr-25 17:27 168 16.7
2015-Apr-25 17:12 182 17.2
2015-Apr-25 16:57 184 17.2
2015-Apr-25 16:42 164 1 gusting 8 17.8
2015-Apr-25 16:27 183 0 gusting 6 18.3
2015-Apr-25 16:12 190 1 gusting 6 18.9
2015-Apr-25 15:55 205 0 gusting 6 19.4
2015-Apr-25 15:40 192 19.4
2015-Apr-25 15:25 148 19.4
2015-Apr-25 15:10 158 20.0
2015-Apr-25 14:55 152 0 gusting 6 20.6
2015-Apr-25 14:40 152 21.1
2015-Apr-25 14:24 152 0 gusting 7 21.1
2015-Apr-25 14:10 150 21.1
2015-Apr-25 13:55 126 2 gusting 8 21.1
2015-Apr-25 13:40 123 2 gusting 10 21.1
2015-Apr-25 13:23 144 2 gusting 10 21.1
2015-Apr-25 13:08 175 2 gusting 8 21.7
2015-Apr-25 12:53 131 2 gusting 7 21.7
2015-Apr-25 12:38 117 2 gusting 8 21.7
2015-Apr-25 12:23 136 3 gusting 10 21.7
2015-Apr-25 12:07 107 0 gusting 6 22.8
2015-Apr-25 11:52 159 0 gusting 5 22.8
2015-Apr-25 11:37 146 22.2
2015-Apr-25 11:22 214 3 gusting 8 22.2
2015-Apr-25 11:07 268 21.7
2015-Apr-25 10:52 279 20.6
2015-Apr-25 10:37 303 20.0
2015-Apr-25 10:22 360 20.0
2015-Apr-25 10:05 032 20.0
2015-Apr-25 09:50 291 2 gusting 6 19.4
2015-Apr-25 09:35 065 19.4
2015-Apr-25 09:20 276 17.8
2015-Apr-25 09:05 275 0 gusting 5 16.7
2015-Apr-25 08:50 053 0 gusting 3 16.1
2015-Apr-25 08:35 347 15.6
2015-Apr-25 08:20 338 14.4
2015-Apr-25 08:04 303 14.4
2015-Apr-25 07:49 304 13.9
2015-Apr-25 07:34 304 13.9
2015-Apr-25 07:19 304 13.9
2015-Apr-25 07:04 304 13.3
2015-Apr-25 06:49 323 13.3
2015-Apr-25 06:34 323 12.8
2015-Apr-25 06:19 322 12.8
2015-Apr-25 06:04 323 12.8
2015-Apr-25 05:49 322 12.2
2015-Apr-25 05:34 323 12.2
2015-Apr-25 05:19 326 11.7
2015-Apr-25 05:04 326 11.7
2015-Apr-25 04:49 327 11.7
2015-Apr-25 04:34 327 11.1
2015-Apr-25 04:19 313 11.1
2015-Apr-25 04:04 313 10.6
2015-Apr-25 03:49 313 10.6
2015-Apr-25 03:34 313 11.1
2015-Apr-25 03:19 313 11.1
2015-Apr-25 03:04 313 10.6
2015-Apr-25 02:49 313 11.1
2015-Apr-25 02:34 313 11.1
2015-Apr-25 02:19 303 11.1
2015-Apr-25 02:03 246 11.1
2015-Apr-25 01:48 244 11.1
2015-Apr-25 01:33 242 11.1
2015-Apr-25 01:18 241 11.1
2015-Apr-25 01:03 241 11.1
2015-Apr-25 00:47 241 11.1
2015-Apr-25 00:32 241 11.1
2015-Apr-25 00:17 241 10.6
2015-Apr-25 00:02 241 10.6
2015-Apr-24 23:47 238 10.6
2015-Apr-24 23:32 225 10.6
2015-Apr-24 23:17 214 11.1
2015-Apr-24 23:03 213 11.1
2015-Apr-24 22:47 201 11.1
2015-Apr-24 22:30 175 11.7
2015-Apr-24 22:15 175 11.7
2015-Apr-24 22:00 173 12.2
2015-Apr-24 21:45 173 12.8
2015-Apr-24 21:30 174 12.8
2015-Apr-24 21:15 173 13.3
2015-Apr-24 21:00 174 13.3
2015-Apr-24 20:45 173 13.3
2015-Apr-24 20:30 174 13.9
2015-Apr-24 20:13 174 13.9
2015-Apr-24 20:00 174 13.9
2015-Apr-24 19:43 174 14.4
2015-Apr-24 19:28 174 14.4
2015-Apr-24 19:13 174 14.4
2015-Apr-24 18:57 174 14.4
2015-Apr-24 18:42 174 14.4
2015-Apr-24 18:27 174 15.0
2015-Apr-24 18:12 174 15.0
2015-Apr-24 17:57 174 15.0
2015-Apr-24 17:42 174 15.6
2015-Apr-24 17:27 172 15.6
2015-Apr-24 17:12 168 16.1
2015-Apr-24 16:58 166 16.1
2015-Apr-24 16:42 194 16.7
2015-Apr-24 16:27 198 17.2
2015-Apr-24 16:10 189 17.8
2015-Apr-24 15:55 179 0 gusting 6 18.3
2015-Apr-24 15:40 177 18.3
2015-Apr-24 15:25 221 0 gusting 6 18.9
2015-Apr-24 15:10 195 18.9
2015-Apr-24 14:55 192 19.4
2015-Apr-24 14:40 184 18.9
2015-Apr-24 14:23 207 19.4
2015-Apr-24 14:08 153 19.4
2015-Apr-24 13:53 164 19.4
2015-Apr-24 13:38 179 19.4
2015-Apr-24 13:23 142 19.4
2015-Apr-24 13:08 164 1 gusting 6 20.0
2015-Apr-24 12:52 195 0 gusting 6 19.4
2015-Apr-24 12:37 196 0 gusting 6 19.4
2015-Apr-24 12:22 148 18.9
2015-Apr-24 12:08 162 18.9
2015-Apr-24 11:52 134 0 gusting 7 18.9
2015-Apr-24 11:38 164 2 gusting 7 18.9
2015-Apr-24 11:22 125 1 gusting 6 18.9
2015-Apr-24 11:07 166 18.3